Content
SEND FEEDBACK

Daily
Averages
Monthly
Summary
United States of America

HAZELWOOD, MISSOURI


Home > North America > United States > Missouri
Elevation: 174 meters     Latitude: 38 45N     Longitude: 090 22W

WEATHER
 
SELECT A DAY
Number of Records: 200,462;   Date Range: 1/1/95 - 11/21/14
 
SHARE

PRINT THIS DATA

[ ← Previous Day ]
WEATHER ALMANAC - 13 FEBRUARY, 2013
[ Next Day → ]
[ °F ]   °C
Weather ElementAverageHighLow
Temperature6.1 °C12.2 °C (2:54 pm)0.6 °C (6:54 am)
Dewpoint-1.8 °C-0.6 °C (8:54 pm)-3.3 °C (1:54 pm)
Humidity60 %82 % (6:54 am)34 % (2:54 pm)
Barometer1011.9 hPa1014.2 hPa (1:54 am)1009.8 hPa (2:54 pm)
Wind Speed12.6 km/h27.8 km/h (1:54 pm)
Wind Gust46.3 km/h (12:54 pm)
Weather ElementAverage
Visibility16.1 km
Wind DirectionSSW (215.2 °)

Weather ElementTotal
Precipitation---
Heating Degree Days11.9 (Base 18.3)
Averaged from 23 records on 13 February, 2013
WEATHER CONDITIONS BREAKOUT
WIND DIRECTION BREAKOUT
WEATHER BY HOUR - 13 FEBRUARY, 2013
[ °F ]   °C
Local TimeTemperatureDewpointHumidityBarometerVisibilityWind DirectionWind SpeedGust SpeedPrecipitationEventsConditions
1:54 AM2.2 °C-1.7 °C76 %1014.2 hPa16.1 kmCalmOvercast
2:54 AM2.2 °C-1.7 °C76 %1013.5 hPa16.1 kmWSW (250°)5.6 km/hOvercast
3:54 AM2.8 °C-2.2 °C70 %1012.5 hPa16.1 kmCalmOvercast
4:54 AM1.7 °C-1.7 °C78 %1012.2 hPa16.1 kmWNW (300°)5.6 km/hOvercast
5:54 AM1.7 °C-1.7 °C78 %1012.5 hPa16.1 kmCalmClear
6:54 AM0.6 °C-2.2 °C82 %1012.9 hPa16.1 kmWSW (250°)7.4 km/hScattered Clouds
7:54 AM1.1 °C-2.2 °C79 %1013.2 hPa16.1 kmSW (230°)9.3 km/hClear
8:54 AM3.9 °C-1.1 °C70 %1012.9 hPa16.1 kmWSW (250°)16.7 km/hScattered Clouds
9:54 AM6.1 °C-1.1 °C60 %1012.5 hPa16.1 kmWSW (240°)9.3 km/hScattered Clouds
10:54 AM8.3 °C-1.7 °C50 %1012.2 hPa16.1 kmWSW (250°)11.1 km/hClear
11:54 AM10 °C-1.7 °C44 %1011.9 hPa16.1 kmSW (230°)14.8 km/hClear
12:54 PM11.1 °C-2.8 °C38 %1010.5 hPa16.1 kmWest (270°)22.2 km/h46.3 km/hClear
1:54 PM11.7 °C-3.3 °C35 %1010.2 hPa16.1 kmWSW (250°)27.8 km/h38.9 km/hPartly Cloudy
2:54 PM12.2 °C-3.3 °C34 %1009.8 hPa16.1 kmWest (270°)13 km/h25.9 km/hClear
3:54 PM11.7 °C-2.8 °C37 %1010.2 hPa16.1 kmWSW (250°)25.9 km/h31.5 km/hClear
4:54 PM10.6 °C-2.2 °C41 %1010.2 hPa16.1 kmWSW (250°)20.4 km/hClear
5:54 PM7.2 °C-1.7 °C53 %1010.8 hPa16.1 kmWest (260°)11.1 km/hScattered Clouds
6:54 PM4.4 °C-2.2 °C63 %1011.2 hPa16.1 kmSW (230°)5.6 km/hClear
7:54 PM6.7 °C-1.1 °C58 %1011.5 hPa16.1 kmSW (230°)16.7 km/hClear
8:54 PM6.1 °C-0.6 °C62 %1011.9 hPa16.1 kmWSW (240°)14.8 km/hClear
9:54 PM5.6 °C-0.6 °C65 %1011.9 hPa16.1 kmWSW (240°)14.8 km/hClear
10:54 PM5 °C-0.6 °C67 %1011.5 hPa16.1 kmSW (230°)18.5 km/hClear
11:54 PM5.6 °C-0.6 °C65 %1011.2 hPa16.1 kmSW (230°)16.7 km/hClear
Hourly data recorded from KSUS, located 0 kilometers away from Hazelwood, Missouri







STORIES FROM OUR PARTNERS